Regional Weather Roundup
Issued by NWS Burlington, VT

Home | Current Version | Previous Version | Text Only | Print | Product List | Glossary On
Versions: 1 2 3 4 5 6 7 8 9 10 11 12 13 14 15 16 17 18 19 20 21 22 23 24 25 26 27
000
ASUS41 KBTV 240710
RWRBTV
VERMONT REGIONAL WEATHER ROUNDUP
NATIONAL WEATHER SERVICE BURLINGTON VT
300 AM EDT FRI OCT 24 2014

NOTE: "FAIR" INDICATES FEW OR NO CLOUDS BELOW 12,000 FEET WITH NO
SIGNIFICANT WEATHER AND/OR OBSTRUCTIONS TO VISIBILITY.

* THESE REPORTS ARE NOT UNDER NWS QUALITY CONTROL AND/OR DO NOT
  REPORT WEATHER SUCH AS PRECIPITATION AND FOG.

VTZ001>019-240800-
_____VERMONT_____


CITY           SKY/WX    TMP DP  RH WIND       PRES   REMARKS
BURLINGTON     LGT RAIN  43  40  89 N13       29.84S FOG
MONTPELIER     LGT RAIN  42  41  96 NW6       29.80F
MORRISVILLE    LGT RAIN  43  41  93 N6        29.81F
ST. JOHNSBURY*   N/A     45  43  93 MISG      29.75F
LYNDONVILLE*   CLOUDY    44  40  86 W6        29.77F
MIDDLEBURY*    RAIN      43  43 100 N6        29.82F
RUTLAND*       CLOUDY    41  39  93 NW6       29.79F
SPRINGFIELD    LGT RAIN  45  44  97 CALM      29.76S
HIGHGATE*      RAIN      41  40  97 N8        29.85F
NEWPORT*       DRIZZLE   42  40  95 N12       29.80F
BENNINGTON     LGT RAIN  43  41  93 NW10      29.79F
SUTTON*          N/A     41 N/A N/A MISG        N/A

_____LAKE CHAMPLAIN_____


CITY           SKY/WX    TMP DP  RH WIND       PRES   REMARKS
COLCHESTER RF*   N/A     43  43 100 N22         N/A
DIAMOND ISL*     N/A     45  41  87 NW15        N/A

$$

NYZ007-026>031-035-052-083-240800-
_____NORTHERN NEW YORK_____


CITY           SKY/WX    TMP DP  RH WIND       PRES   REMARKS
PLATTSBURGH    CLOUDY    43  41  93 NW14      29.86F FOG
SARANAC LAKE   CLOUDY    40  38  93 N5        29.84F
MASSENA        CLOUDY    46  41  82 NE5       29.94S
OGDENSBURG*    CLOUDY    46  45  93 CALM      29.94S
POTSDAM*       CLOUDY    45  45 100 CALM      29.93S
WATERTOWN      CLOUDY    47  40  76 N3        29.94S
ALBANY         LGT RAIN  46  44  93 N5        29.83F FOG
GLENS FALLS    LGT RAIN  45  43  93 CALM      29.82F

$$
NHZ002-005-011-240800-
_____NEW HAMPSHIRE_____


CITY           SKY/WX    TMP DP  RH WIND       PRES   REMARKS
LEBANON        LGT RAIN  47  43  86 N3        29.75S
KEENE          CLOUDY    48  39  71 N8        29.73F
MT WASHINGTON  FRZ DRZL  32  32 100 NE32        N/A  VSB 1/16
PLYMOUTH       LGT RAIN  47  47 100 W7        29.71F
WHITEFIELD     LGT RAIN  46  43  89 N5        29.74F

$$

_____REGIONAL QUEBEC LOCATIONS_____


CITY           SKY/WX    TMP DP  RH WIND       PRES   REMARKS
MONTREAL       CLOUDY    46  41  81 N13       29.91F
QUEBEC CITY    LGT RAIN  43  36  75 E8        29.92F
SHERBROOKE     CLOUDY    43  41  93 NE7       29.81

_____REGIONAL ONTARIO LOCATIONS_____


CITY           SKY/WX    TMP DP  RH WIND       PRES   REMARKS
OTTAWA         PTSUNNY   43  43 100 N3        29.93F

______KEY______
VSB  - VISIBILITY IN MILES
WCI  - WIND CHILL INDEX
HX   - HEAT INDEX
$$
NNNN



USA.gov is the U.S. government's official web portal to all federal, state and local government web resources and services.